DW8201 Weather Reports


Display with metric or nautical units.
time (UTC)temp
F
wind
direction
speed
MPH
gust
MPH
rain 1hr
in
rain 24hr
in
rain mn
in
humidity
%
barometer
mb
20260906061930 51 120 0.0 2.0 0.00 0.00 0.00 96 1025.5
20260906061421 50 106 1.0 3.0 0.00 0.00 0.00 95 1025.5
20260906060915 50 136 1.0 3.0 0.00 0.00 0.00 96 1025.5
20260906060408 50 148 0.0 0.0 0.00 0.00 0.00 95 1025.7
20260906055900 49 148 0.0 3.0 0.00 0.00 0.00 96 1025.7
20260906055355 49 144 0.0 3.0 0.00 0.00 0.00 95 1025.7
20260906055345 49 158 0.0 0.0 0.00 0.00 0.00 95 1025.7
20260906054435 49 235 0.0 0.0 0.00 0.00 0.00 95 1025.6
20260906053928 48 235 0.0 0.0 0.00 0.00 0.00 95 1025.6
20260906053420 48 235 0.0 0.0 0.00 0.00 0.00 95 1025.5
20260906052913 48 235 0.0 0.0 0.00 0.00 0.00 95 1025.5
20260906052405 48 235 0.0 0.0 0.00 0.00 0.00 95 1025.5
20260906051858 48 235 0.0 0.0 0.00 0.00 0.00 95 1025.4
20260906051353 49 235 0.0 0.0 0.00 0.00 0.00 95 1025.3
20260906051150 49 235 0.0 0.0 0.00 0.00 0.00 95 1025.4
20260906050949 49 235 0.0 0.0 0.00 0.00 0.00 95 1025.4
20260906045936 48 235 0.0 0.0 0.00 0.00 0.00 95 1025.5
20260906045428 48 235 0.0 0.0 0.00 0.00 0.00 95 1025.4
20260906044921 48 235 0.0 0.0 0.00 0.00 0.00 95 1025.4
20260906044414 48 235 0.0 0.0 0.00 0.00 0.00 95 1025.4
20260906043905 48 235 0.0 0.0 0.00 0.00 0.00 95 1025.5
20260906043359 48 235 0.0 0.0 0.00 0.00 0.00 95 1025.6
20260906042850 48 235 0.0 0.0 0.00 0.00 0.00 94 1025.6
20260906042346 48 235 0.0 0.0 0.00 0.00 0.00 94 1025.6
20260906042143 48 235 0.0 0.0 0.00 0.00 0.00 94 1025.7
20260906041336 48 235 0.0 0.0 0.00 0.00 0.00 94 1025.7
20260906040829 48 235 0.0 0.0 0.00 0.00 0.00 94 1025.9
20260906040419 48 235 0.0 0.0 0.00 0.00 0.00 94 1025.9
20260906035910 48 235 0.0 0.0 0.00 0.00 0.00 94 1025.8
20260906035405 48 235 0.0 0.0 0.00 0.00 0.00 94 1025.9
20260906034857 48 235 0.0 0.0 0.00 0.00 0.00 94 1025.9
20260906034352 48 235 0.0 0.0 0.00 0.00 0.00 94 1025.9
20260906033846 48 235 0.0 0.0 0.00 0.00 0.00 94 1025.8
20260906033339 49 235 0.0 0.0 0.00 0.00 0.00 94 1025.7
20260906033229 49 235 0.0 0.0 0.00 0.00 0.00 94 1025.7
20260906032330 49 235 0.0 0.0 0.00 0.00 0.00 94 1025.7
20260906031824 49 235 0.0 0.0 0.00 0.00 0.00 94 1025.6
20260906031415 49 235 0.0 0.0 0.00 0.00 0.00 94 1025.6
20260906030910 49 235 0.0 0.0 0.00 0.00 0.00 94 1025.7
20260906030401 49 235 0.0 0.0 0.00 0.00 0.00 94 1025.6
20260906025852 49 235 0.0 0.0 0.00 0.00 0.00 94 1025.6
20260906025345 49 235 0.0 0.0 0.00 0.00 0.00 94 1025.7
20260906024850 49 235 0.0 0.0 0.00 0.00 0.00 94 1026.0
20260906024335 49 235 0.0 0.0 0.00 0.00 0.00 94 1026.1
20260906023828 49 235 0.0 0.0 0.00 0.00 0.00 94 1026.2
20260906023621 49 235 0.0 0.0 0.00 0.00 0.00 93 1026.3
20260906022911 49 235 0.0 0.0 0.00 0.00 0.00 94 1026.2
20260906022402 49 235 0.0 0.0 0.00 0.00 0.00 94 1026.2
20260906021853 49 235 0.0 0.0 0.00 0.00 0.00 94 1026.2
20260906021347 49 235 0.0 0.0 0.00 0.00 0.00 93 1026.3
20260906020839 49 235 0.0 0.0 0.00 0.00 0.00 93 1026.2
20260906020332 49 235 0.0 0.0 0.00 0.00 0.00 93 1026.2
20260906015827 49 235 0.0 0.0 0.00 0.00 0.00 93 1026.3
20260906015318 49 235 0.0 0.0 0.00 0.00 0.00 94 1026.2
20260906014908 49 235 0.0 0.0 0.00 0.00 0.00 93 1026.0
20260906014700 49 235 0.0 0.0 0.00 0.00 0.00 93 1026.0
20260906013854 49 235 0.0 0.0 0.00 0.00 0.00 93 1026.0
20260906013349 49 235 0.0 0.0 0.00 0.00 0.00 93 1025.9
20260906012841 49 235 0.0 0.0 0.00 0.00 0.00 93 1025.8
20260906012336 50 235 0.0 0.0 0.00 0.00 0.00 93 1025.9
20260906011830 50 235 0.0 0.0 0.00 0.00 0.00 93 1025.8
20260906011321 50 235 0.0 0.0 0.00 0.00 0.00 93 1025.9
20260906010827 50 235 0.0 0.0 0.00 0.00 0.00 93 1025.9
20260906010305 50 235 0.0 0.0 0.00 0.00 0.00 93 1025.8
20260906010059 50 235 0.0 0.0 0.00 0.00 0.00 93 1026.0
20260906005349 50 235 0.0 0.0 0.00 0.00 0.00 93 1026.1
20260906004845 50 235 0.0 0.0 0.00 0.00 0.00 93 1026.1
20260906004339 50 235 0.0 0.0 0.00 0.00 0.00 93 1026.0
20260906004027 51 235 0.0 0.0 0.00 0.00 0.00 93 1025.9
20260906003827 51 235 0.0 0.0 0.00 0.00 0.00 93 1025.9
20260906003823 50 235 0.0 0.0 0.00 0.00 0.00 92 1026.0
20260906003419 50 235 0.0 0.0 0.00 0.00 0.00 92 1026.0
20260906001808 51 235 0.0 0.0 0.00 0.00 0.00 92 1025.8
20260906001605 51 235 0.0 0.0 0.00 0.00 0.00 92 1025.8
20260906000757 51 235 0.0 0.0 0.00 0.00 0.00 92 1025.8
20260906000252 51 235 0.0 0.0 0.00 0.00 0.00 92 1025.9
20260905235848 51 235 0.0 0.0 0.00 0.00 0.00 92 1025.9
20260905235341 51 235 0.0 0.0 0.00 0.00 0.00 92 1025.9
20260905235132 51 235 0.0 0.0 0.00 0.00 0.00 91 1025.9
20260905234324 51 235 0.0 0.0 0.00 0.00 0.00 91 1025.9
20260905233815 51 235 0.0 0.0 0.00 0.00 0.00 91 1025.9
20260905233608 52 235 0.0 0.0 0.00 0.00 0.00 92 1025.8
20260905232758 52 235 0.0 0.0 0.00 0.00 0.00 91 1025.8
20260905232543 52 235 0.0 0.0 0.00 0.00 0.00 91 1025.6
20260905232343 52 235 0.0 0.0 0.00 0.00 0.00 91 1025.7
20260905231237 52 235 0.0 0.0 0.00 0.00 0.00 92 1025.6
20260905230830 52 235 0.0 0.0 0.00 0.00 0.00 92 1025.6
20260905230323 52 235 0.0 0.0 0.00 0.00 0.00 92 1025.6
20260905225813 52 235 0.0 0.0 0.00 0.00 0.00 92 1025.5
20260905225307 52 235 0.0 0.0 0.00 0.00 0.00 91 1025.5
20260905224801 52 235 0.0 0.0 0.00 0.00 0.00 91 1025.6
20260905224254 52 235 0.0 0.0 0.00 0.00 0.00 91 1025.6
20260905223749 53 235 0.0 0.0 0.00 0.00 0.00 91 1025.6
20260905223240 52 235 0.0 0.0 0.00 0.00 0.00 91 1025.7
20260905222735 53 235 0.0 0.0 0.00 0.00 0.00 91 1025.7
20260905222622 53 235 0.0 0.0 0.00 0.00 0.00 90 1025.7
20260905221815 53 235 0.0 0.0 0.00 0.00 0.00 90 1025.7
20260905221309 53 235 0.0 0.0 0.00 0.00 0.00 90 1025.6
20260905221105 53 235 0.0 0.0 0.00 0.00 0.00 90 1025.5
20260905220259 53 235 0.0 0.0 0.00 0.00 0.00 90 1025.5
20260905215751 53 235 0.0 0.0 0.00 0.00 0.00 90 1025.4
20260905215241 53 235 0.0 0.0 0.00 0.00 0.00 90 1025.5
20260905214736 53 235 0.0 0.0 0.00 0.00 0.00 89 1025.5
20260905214227 53 235 0.0 0.0 0.00 0.00 0.00 89 1025.4
20260905213818 54 235 0.0 0.0 0.00 0.00 0.00 89 1025.5
20260905213605 54 235 0.0 0.0 0.00 0.00 0.00 89 1025.4
20260905213059 54 235 0.0 0.0 0.00 0.00 0.00 88 1025.4
20260905212550 54 235 0.0 0.0 0.00 0.00 0.00 88 1025.4
20260905211737 54 235 0.0 0.0 0.00 0.00 0.00 88 1025.4
20260905211439 55 235 0.0 0.0 0.00 0.00 0.00 88 1025.3
20260905211240 54 235 0.0 0.0 0.00 0.00 0.00 88 1025.4
20260905210313 55 312 0.0 0.0 0.00 0.00 0.00 88 1025.2
20260905205805 55 312 0.0 0.0 0.00 0.00 0.00 87 1025.2
20260905205257 55 312 0.0 0.0 0.00 0.00 0.00 87 1025.1
20260905204745 55 312 0.0 0.0 0.00 0.00 0.00 87 1025.0
20260905204240 55 312 0.0 0.0 0.00 0.00 0.00 86 1025.0
20260905203829 55 312 0.0 0.0 0.00 0.00 0.00 86 1025.0
20260905203319 55 312 0.0 0.0 0.00 0.00 0.00 86 1025.0
20260905202911 56 312 0.0 0.0 0.00 0.00 0.00 85 1025.1
20260905202714 56 312 0.0 0.0 0.00 0.00 0.00 85 1024.9
20260905201854 56 312 0.0 0.0 0.00 0.00 0.00 85 1025.0
20260905201345 56 312 0.0 0.0 0.00 0.00 0.00 85 1025.0
20260905201146 56 312 0.0 0.0 0.00 0.00 0.00 84 1025.0
20260905200615 56 312 0.0 0.0 0.00 0.00 0.00 84 1024.9
20260905195922 57 312 0.0 0.0 0.00 0.00 0.00 83 1024.8
20260905195819 57 312 0.0 0.0 0.00 0.00 0.00 84 1024.9
20260905195608 57 312 0.0 0.0 0.00 0.00 0.00 83 1024.9
20260905194354 57 312 0.0 0.0 0.00 0.00 0.00 83 1024.9
20260905193844 58 312 0.0 0.0 0.00 0.00 0.00 83 1024.9
20260905193334 58 312 0.0 0.0 0.00 0.00 0.00 82 1024.9
20260905192823 58 312 0.0 0.0 0.00 0.00 0.00 82 1024.8
20260905192314 58 312 0.0 0.0 0.00 0.00 0.00 81 1024.7
20260905191901 58 312 0.0 0.0 0.00 0.00 0.00 81 1024.6
20260905191357 59 312 0.0 0.0 0.00 0.00 0.00 80 1024.5
20260905191351 59 312 0.0 0.0 0.00 0.00 0.00 81 1024.5
20260905190843 59 312 0.0 0.0 0.00 0.00 0.00 80 1024.5
20260905190138 60 312 0.0 0.0 0.00 0.00 0.00 79 1024.5
20260905185322 60 312 0.0 0.0 0.00 0.00 0.00 79 1024.5
20260905184913 61 312 0.0 0.0 0.00 0.00 0.00 78 1024.5
20260905184812 60 312 0.0 0.0 0.00 0.00 0.00 78 1024.5
20260905183848 61 312 0.0 0.0 0.00 0.00 0.00 77 1024.3
20260905183340 61 312 0.0 0.0 0.00 0.00 0.00 76 1024.3
20260905182832 62 311 0.0 0.0 0.00 0.00 0.00 76 1024.3
20260905182327 62 311 0.0 0.0 0.00 0.00 0.00 75 1024.2
20260905182130 62 308 0.0 3.0 0.00 0.00 0.00 75 1024.2
20260905181621 62 324 0.0 3.0 0.00 0.00 0.00 74 1024.2
20260905180907 63 292 1.0 5.0 0.00 0.00 0.00 73 1024.3
20260905180900 63 297 0.0 3.0 0.00 0.00 0.00 74 1024.3
20260905175846 63 332 2.0 5.0 0.00 0.00 0.00 73 1024.2
20260905175352 64 312 3.0 6.0 0.00 0.00 0.00 72 1024.1
20260905174832 64 326 3.0 7.0 0.00 0.00 0.00 71 1024.1
20260905174322 64 340 2.0 7.0 0.00 0.00 0.00 71 1024.1
20260905173812 65 302 2.0 7.0 0.00 0.00 0.00 70 1024.1
20260905173309 65 288 3.0 7.0 0.00 0.00 0.00 70 1024.0
20260905172859 65 307 3.0 7.0 0.00 0.00 0.00 69 1024.0
20260905172355 65 282 4.0 9.0 0.00 0.00 0.00 69 1023.9
20260905172349 65 309 3.0 9.0 0.00 0.00 0.00 69 1023.9
20260905171328 65 313 4.0 10.0 0.00 0.00 0.00 68 1023.9
20260905170822 65 312 4.0 10.0 0.00 0.00 0.00 68 1023.8
20260905170313 66 319 4.0 13.0 0.00 0.00 0.00 68 1023.8
20260905165804 66 32 4.0 13.0 0.00 0.00 0.00 67 1023.6
20260905165254 66 302 5.0 14.0 0.00 0.00 0.00 67 1023.7
20260905164848 67 303 5.0 14.0 0.00 0.00 0.00 66 1023.6
20260905164339 67 295 4.0 10.0 0.00 0.00 0.00 66 1023.5
20260905163841 67 285 4.0 13.0 0.00 0.00 0.00 66 1023.5
20260905163324 67 310 5.0 13.0 0.00 0.00 0.00 65 1023.4
20260905162815 67 309 5.0 13.0 0.00 0.00 0.00 65 1023.4
20260905162306 67 297 3.0 13.0 0.00 0.00 0.00 65 1023.2
20260905161801 67 333 3.0 11.0 0.00 0.00 0.00 66 1023.1
20260905161252 67 292 4.0 11.0 0.00 0.01 0.00 66 1023.1
20260905160743 67 274 5.0 14.0 0.00 0.01 0.00 66 1023.1
20260905160236 67 302 5.0 16.0 0.00 0.01 0.00 65 1023.1
20260905155829 68 328 4.0 16.0 0.00 0.01 0.00 65 1023.0
20260905155319 68 285 5.0 13.0 0.00 0.01 0.00 66 1023.0
20260905154810 68 347 6.0 15.0 0.00 0.01 0.00 66 1022.9
20260905154303 68 326 6.0 15.0 0.00 0.01 0.00 66 1022.8
20260905153751 68 283 5.0 12.0 0.00 0.01 0.00 66 1022.8
20260905153244 68 316 4.0 14.0 0.00 0.01 0.00 67 1022.7
20260905152736 68 27 4.0 14.0 0.00 0.01 0.00 66 1022.7
20260905152228 68 298 4.0 11.0 0.00 0.02 0.00 65 1022.7
20260905151719 68 314 4.0 11.0 0.00 0.02 0.00 67 1022.6
20260905151310 67 21 5.0 11.0 0.00 0.02 0.00 67 1022.6
20260905150802 68 330 5.0 12.0 0.00 0.02 0.00 68 1022.6
20260905150255 68 304 4.0 12.0 0.00 0.02 0.00 66 1022.5
20260905145744 68 1 2.0 10.0 0.00 0.03 0.00 67 1022.5
20260905145235 68 316 2.0 7.0 0.00 0.05 0.00 67 1022.4
20260905144728 68 333 3.0 16.0 0.00 0.05 0.00 67 1022.4
20260905144222 67 270 3.0 12.0 0.00 0.06 0.00 67 1022.4
20260905144218 68 293 3.0 16.0 0.00 0.06 0.00 66 1022.4
20260905143813 68 295 3.0 12.0 0.00 0.06 0.00 68 1022.4
20260905142754 67 131 3.0 12.0 0.00 0.06 0.00 67 1022.4
20260905142243 67 297 3.0 10.0 0.00 0.06 0.00 67 1022.3
20260905141733 67 32 3.0 10.0 0.00 0.06 0.00 66 1022.3
20260905141223 67 296 4.0 9.0 0.00 0.06 0.00 68 1022.3
20260905140718 67 328 4.0 10.0 0.00 0.06 0.00 67 1022.2
20260905140209 68 6 4.0 12.0 0.00 0.06 0.00 66 1022.2
20260905135710 68 34 4.0 12.0 0.00 0.06 0.00 66 1022.0
20260905135259 69 291 3.0 11.0 0.00 0.07 0.00 65 1021.9
20260905135146 69 312 3.0 7.0 0.00 0.09 0.00 64 1021.9
20260905134231 69 229 2.0 7.0 0.00 0.09 0.00 64 1021.9
20260905133727 69 192 3.0 8.0 0.00 0.09 0.00 62 1021.8
20260905133722 69 27 2.0 7.0 0.00 0.09 0.00 64 1021.8
20260905132713 70 289 2.0 8.0 0.00 0.09 0.00 63 1021.8
20260905132706 70 185 3.0 9.0 0.00 0.10 0.00 62 1021.7
20260905131758 70 185 3.0 9.0 0.00 0.11 0.00 63 1021.7
20260905131254 70 191 3.0 14.0 0.00 0.11 0.00 63 1021.7
20260905130746 70 269 4.0 17.0 0.00 0.11 0.00 63 1021.7
20260905130226 70 265 4.0 17.0 0.00 0.11 0.00 62 1021.5
20260905125715 70 206 3.0 10.0 0.00 0.11 0.00 63 1021.6
20260905125204 70 349 3.0 9.0 0.00 0.11 0.00 63 1021.6
20260905124704 69 253 4.0 11.0 0.00 0.11 0.00 63 1021.5
20260905124256 70 268 4.0 11.0 0.00 0.11 0.00 63 1021.5
20260905123751 70 124 3.0 13.0 0.00 0.11 0.00 64 1021.5
20260905123243 69 255 3.0 13.0 0.00 0.11 0.00 65 1021.4
20260905122733 69 301 2.0 9.0 0.00 0.11 0.00 66 1021.5
20260905122225 69 237 3.0 12.0 0.00 0.11 0.00 65 1021.4
20260905121707 70 225 3.0 12.0 0.00 0.11 0.00 65 1021.4
20260905121200 70 285 3.0 12.0 0.00 0.11 0.00 66 1021.4
20260905120659 70 343 3.0 12.0 0.00 0.11 0.00 66 1021.3
20260905120251 70 278 4.0 12.0 0.00 0.11 0.00 67 1021.3
20260905120144 69 236 5.0 15.0 0.00 0.11 0.00 69 1021.2
20260905115231 68 149 4.0 15.0 0.00 0.11 0.00 69 1021.2
20260905114726 68 334 3.0 11.0 0.00 0.11 0.00 67 1021.2
20260905114216 69 6 4.0 11.0 0.00 0.11 0.00 69 1021.2
20260905113709 69 314 4.0 11.0 0.00 0.11 0.00 70 1021.1
20260905113558 69 215 4.0 10.0 0.00 0.11 0.00 70 1020.9
20260905112654 69 22 5.0 10.0 0.00 0.11 0.00 67 1020.9
20260905112640 69 339 4.0 10.0 0.00 0.11 0.00 68 1021.0
20260905111735 69 170 4.0 9.0 0.00 0.11 0.00 69 1020.9
20260905111625 69 252 3.0 10.0 0.00 0.11 0.00 70 1020.9
20260905110717 68 239 3.0 10.0 0.00 0.11 0.00 72 1021.0
20260905110209 67 227 2.0 9.0 0.00 0.11 0.00 70 1021.1
20260905105659 68 286 3.0 10.0 0.00 0.11 0.00 70 1021.0
20260905105250 68 298 4.0 10.0 0.00 0.11 0.00 69 1021.0
20260905104742 68 231 3.0 10.0 0.00 0.11 0.00 71 1020.9
20260905104233 67 191 3.0 10.0 0.00 0.11 0.00 70 1020.8
20260905103726 67 53 2.0 7.0 0.00 0.11 0.00 71 1020.8
20260905103618 67 144 3.0 16.0 0.00 0.11 0.00 71 1020.9
20260905102709 68 193 4.0 16.0 0.00 0.11 0.00 70 1020.8
20260905102159 67 295 3.0 11.0 0.00 0.11 0.00 74 1020.7
20260905101650 67 303 4.0 14.0 0.00 0.11 0.00 73 1020.7
20260905101242 67 276 4.0 14.0 0.00 0.11 0.00 72 1020.7
20260905100736 67 283 3.0 12.0 0.00 0.11 0.00 72 1020.7
20260905100626 67 215 4.0 11.0 0.00 0.11 0.00 74 1020.7
20260905095715 67 220 3.0 11.0 0.00 0.11 0.00 74 1020.6
20260905095209 67 255 3.0 10.0 0.00 0.11 0.00 74 1020.6
20260905094659 67 280 4.0 11.0 0.00 0.11 0.00 74 1020.6
20260905094546 67 268 4.0 11.0 0.00 0.11 0.00 74 1020.6
20260905093639 66 280 4.0 13.0 0.00 0.11 0.00 76 1020.5
20260905093228 66 219 5.0 14.0 0.00 0.11 0.00 77 1020.5
20260905092722 66 231 5.0 14.0 0.00 0.11 0.00 77 1020.4
20260905092212 66 185 6.0 14.0 0.00 0.11 0.00 78 1020.3
20260905091702 65 176 5.0 16.0 0.00 0.11 0.00 78 1020.3
20260905091154 65 183 5.0 16.0 0.00 0.11 0.00 78 1020.2
20260905090647 65 226 4.0 13.0 0.00 0.11 0.00 79 1020.1
20260905090150 65 231 3.0 10.0 0.00 0.11 0.00 81 1020.2
20260905085635 65 210 3.0 10.0 0.00 0.11 0.00 81 1020.1
20260905085226 64 216 3.0 10.0 0.00 0.11 0.00 82 1020.1
20260905084717 64 133 3.0 10.0 0.00 0.11 0.00 82 1020.1
20260905084208 64 220 3.0 9.0 0.00 0.11 0.00 82 1020.1
20260905083657 63 188 3.0 9.0 0.00 0.11 0.00 84 1020.1
20260905083149 63 241 4.0 8.0 0.00 0.11 0.00 84 1020.0
20260905082645 62 231 4.0 12.0 0.00 0.11 0.00 85 1020.0
20260905082533 62 333 4.0 12.0 0.00 0.11 0.00 84 1019.9
20260905081630 62 235 3.0 8.0 0.00 0.11 0.00 85 1019.8
20260905081222 62 226 3.0 8.0 0.00 0.11 0.00 86 1019.8
20260905080713 62 218 3.0 11.0 0.00 0.11 0.00 85 1019.7
20260905080207 61 213 4.0 11.0 0.00 0.11 0.00 87 1019.6
20260905075659 61 209 3.0 9.0 0.00 0.11 0.00 87 1019.6
20260905075150 61 257 4.0 8.0 0.00 0.11 0.00 88 1019.6
20260905074943 60 234 4.0 9.0 0.00 0.11 0.00 88 1019.5
20260905074534 60 180 3.0 9.0 0.00 0.11 0.00 88 1019.5
20260905073629 60 200 4.0 8.0 0.00 0.11 0.00 88 1019.4
20260905073124 60 272 4.0 10.0 0.00 0.11 0.00 88 1019.3
20260905072718 60 245 4.0 10.0 0.00 0.11 0.00 89 1019.3
20260905072209 59 224 4.0 9.0 0.00 0.11 0.00 89 1019.1
20260905071703 59 223 4.0 9.0 0.00 0.11 0.00 89 1019.1
20260905071153 59 161 4.0 10.0 0.00 0.11 0.00 90 1019.0
20260905070646 59 195 3.0 10.0 0.00 0.11 0.00 91 1019.0
20260905070534 58 270 2.0 7.0 0.00 0.11 0.00 91 1019.0
20260905065631 58 183 2.0 7.0 0.00 0.11 0.00 91 1018.9
20260905065123 58 270 3.0 7.0 0.00 0.11 0.00 92 1018.9
20260905064617 58 203 2.0 8.0 0.00 0.11 0.00 92 1018.9
20260905064209 57 173 2.0 8.0 0.00 0.11 0.00 92 1018.8
20260905063703 57 245 3.0 7.0 0.00 0.11 0.00 93 1018.8
20260905063155 57 169 3.0 7.0 0.00 0.11 0.00 93 1018.8
20260905062947 57 258 2.0 9.0 0.00 0.11 0.00 93 1018.7
20260905062138 57 228 2.0 9.0 0.00 0.11 0.00 93 1018.6